Regional Weather Roundup
Issued by NWS Goodland, KS

Home | Current Version | Previous Version | Text Only | Print | Product List | Glossary On
Versions: 1 2 3 4 5 6 7 8 9 10 11 12 13 14 15 16 17 18 19 20 21 22 23 24 25 26 27 28 29 30 31 32 33 34 35 36 37 38 39 40 41 42 43 44 45 46 47 48 49 50
000
ASUS43 KGLD 222108
RWRGLD

GOODLAND FORECAST AREA HOURLY WEATHER ROUNDUP
NATIONAL WEATHER SERVICE GOODLAND KS
300 PM MDT SUN OCT 22 2017

...OFFICIAL OBSERVATIONS...

CITY           SKY/WX    TMP DP  RH WIND       PRES   REMARKS
GOODLAND KS    SUNNY     68  21  16 SW15G28   30.06F
HILL CITY KS   SUNNY     71  21  15 SW16G23   30.07F
IMPERIAL NEB   CLOUDY    71  26  18 W14       30.02F
MCCOOK NEB     SUNNY     71  22  15 W20G28    30.02F
AKRON CO       CLOUDY    67  23  19 W16       30.08F
BURLINGTON CO  CLOUDY    67  20  16 S17G24    30.09F
LIMON CO       CLOUDY    68  26  20 NW12      30.11F
$$

...UNOFFICIAL OBSERVATIONS...

CITY           SKY/WX    TMP DP  RH WIND       PRES   REMARKS
COLBY KS       SUNNY     70  28  21 SW14G22   30.07F
LENORA KS        N/A     70  32  24 W6          N/A
NORTON KS      SUNNY     70  10  10 SW15      30.04F
SHARON SPRINGS   N/A     71  23  16 SW12G18     N/A
TRENTON NEB      N/A     71  32  23 W7          N/A
KIT CARSON CO    N/A     65  24  21 MISG        N/A
YUMA CO        FAIR      68  10  10 W10       30.06F
$$



USA.gov is the U.S. government's official web portal to all federal, state and local government web resources and services.